Weather History for KIRK - March, 2014

Change the Weather History Date:

Thursday, March 27, 2014

  Actual Average Record
Temperature  
Mean Temperature 50 °F 45 °F  
Max Temperature 62 °F 56 °F 84 °F (1945)
Min Temperature 38 °F 34 °F 16 °F (1964)
Degree Days  
Heating Degree Days 15 20  
Month to date heating degree days 832 678  
Since 1 July heating degree days 5802 5211  
Cooling Degree Days 0 0  
Month to date cooling degree days 0 0  
Year to date cooling degree days 0 0  
Moisture  
Dew Point 41 °F    
Average Humidity 82    
Maximum Humidity 92    
Minimum Humidity 72    
Precipitation  
Precipitation 0.11 in 0.07 in 1.20 in (1961)
Month to date precipitation 0.95 2.22  
Year to date precipitation 4.50 5.02  
Sea Level Pressure  
Sea Level Pressure 29.59 in    
Wind  
Wind Speed 16 mph (South)    
Max Wind Speed 31 mph    
Max Gust Speed 42 mph    
Visibility 8 miles    
Events Rain , Thunderstorm    
T = Trace of Precipitation, MM = Missing Value Source: NWS Daily Summary

Daily Weather History Graph

Daily Weather History Graph

Search for Another Location

Airport or City:

Trip Planner

Search our weather history database for the weather conditions in past years. The results will help you decide how hot, cold, wet, or windy it might be!

Date:

Astronomy

Mar. 27, 2014 Rise Set
Actual Time 7:02 AM CDT 7:29 PM CDT
Civil Twilight 6:34 AM CDT 7:56 PM CDT
Nautical Twilight 6:03 AM CDT 8:28 PM CDT
Astronomical Twilight 5:30 AM CDT 9:01 PM CDT
Moon 4:53 AM CDT (3/27) 4:17 PM CDT (3/27)
Length of Visible Light 13h 21m
Length of Day
12h 27m
Waning Crescent, 13% of the Moon is Illuminated
Mar 27
Waning Crescent
Mar 30
New
Apr 7
First Quarter
Apr 15
Full
Apr 22
Last Quarter

Hourly Weather History & Observations

Time (CDT) Temp. Windchill Dew Point Humidity Pressure Visibility Wind Dir Wind Speed Gust Speed Precip Events Conditions
12:39 AM 39.9 °F 30.5 °F 36.0 °F 86% 29.82 in 7.0 mi South 19.6 mph 28.8 mph 0.02 in Rain Light Rain
12:55 AM 39.9 °F 30.0 °F 36.0 °F 86% 29.84 in 7.0 mi South 21.9 mph 27.6 mph 0.02 in Rain Light Rain
1:55 AM 39.0 °F 29.9 °F 36.0 °F 89% 29.81 in 5.0 mi SSE 17.3 mph 26.5 mph 0.04 in Rain Light Rain
2:26 AM 39.0 °F 30.3 °F 37.0 °F 93% 29.75 in 3.0 mi SSE 16.1 mph - 0.02 in Rain Light Rain
2:55 AM 39.0 °F 30.6 °F 37.0 °F 93% 29.75 in 3.0 mi SSE 15.0 mph - 0.04 in Rain Light Rain
3:05 AM 39.0 °F 31.0 °F 37.0 °F 93% 29.73 in 3.0 mi SSE 13.8 mph - 0.01 in Rain Light Rain
3:52 AM 39.2 °F 31.6 °F 37.4 °F 93% 29.70 in 5.0 mi SSE 12.7 mph - 0.01 in   Overcast
3:55 AM 39.0 °F 31.8 °F 37.0 °F 93% 29.72 in 5.0 mi SSE 11.5 mph - 0.01 in   Overcast
4:55 AM 39.0 °F 31.4 °F 37.0 °F 93% 29.69 in 3.0 mi SSE 12.7 mph - N/A   Overcast
5:55 AM 41.0 °F 33.9 °F 37.9 °F 89% 29.66 in 8.0 mi SE 12.7 mph - N/A   Overcast
6:55 AM 42.1 °F 37.1 °F 37.9 °F 85% 29.63 in 10.0 mi SE 8.1 mph - N/A   Overcast
7:55 AM 45.0 °F 38.9 °F 39.9 °F 82% 29.64 in 10.0 mi South 12.7 mph - N/A   Overcast
8:46 AM 46.9 °F - 43.0 °F 86% 29.61 in 10.0 mi South 11.5 mph 20.7 mph N/A   Overcast
8:55 AM 46.9 °F - 42.1 °F 83% 29.63 in 10.0 mi South 15.0 mph - N/A   Overcast
9:55 AM 46.9 °F - 41.0 °F 80% 29.61 in 10.0 mi SSE 17.3 mph - 0.00 in   Overcast
10:55 AM 46.9 °F - 42.1 °F 83% 29.58 in 10.0 mi SSE 13.8 mph - N/A   Overcast
11:55 AM 50.0 °F - 43.0 °F 77% 29.55 in 10.0 mi SSE 13.8 mph - N/A   Overcast
12:55 PM 54.0 °F - 46.0 °F 75% 29.52 in 10.0 mi South 20.7 mph 26.5 mph N/A   Overcast
1:55 PM 55.0 °F - 46.9 °F 74% 29.49 in 10.0 mi South 16.1 mph 25.3 mph N/A   Overcast
2:55 PM 57.0 °F - 48.9 °F 74% 29.47 in 10.0 mi South 16.1 mph 27.6 mph N/A   Overcast
3:55 PM 59.0 °F - 50.0 °F 72% 29.42 in 10.0 mi South 18.4 mph 27.6 mph N/A   Overcast
4:37 PM 59.0 °F - 50.0 °F 72% 29.36 in 10.0 mi South 19.6 mph 28.8 mph N/A   Mostly Cloudy
4:55 PM 61.0 °F - 51.1 °F 70% 29.36 in 10.0 mi South 19.6 mph 31.1 mph N/A   Clear
5:44 PM 59.0 °F - 50.0 °F 72% 29.36 in 10.0 mi South 18.4 mph 26.5 mph N/A Thunderstorm Overcast
5:55 PM 57.9 °F - 51.1 °F 78% 29.38 in 10.0 mi South 12.7 mph 24.2 mph 0.00 in Rain , Thunderstorm Light Thunderstorms and Rain
6:30 PM 57.9 °F - 52.0 °F 81% 29.39 in 10.0 mi SW 10.4 mph - 0.02 in Thunderstorm Overcast
6:42 PM 59.0 °F - 52.0 °F 78% 29.39 in 10.0 mi SW 15.0 mph 23.0 mph 0.02 in   Mostly Cloudy
6:55 PM 60.1 °F - 48.9 °F 67% 29.42 in 10.0 mi West 25.3 mph 41.4 mph 0.02 in   Mostly Cloudy
7:55 PM 46.0 °F 38.0 °F 39.0 °F 76% 29.52 in 10.0 mi West 21.9 mph 33.4 mph N/A   Scattered Clouds
8:06 PM 45.0 °F 36.2 °F 37.0 °F 74% 29.51 in 10.0 mi West 24.2 mph 36.8 mph N/A   Mostly Cloudy
8:55 PM 44.1 °F 36.5 °F 37.0 °F 76% 29.57 in 10.0 mi West 17.3 mph 28.8 mph N/A   Overcast
9:55 PM 41.0 °F 31.1 °F 34.0 °F 76% 29.62 in 10.0 mi West 23.0 mph 33.4 mph N/A   Overcast
10:08 PM 39.9 °F 30.2 °F 34.0 °F 79% 29.60 in 10.0 mi West 20.7 mph 29.9 mph N/A   Overcast
10:55 PM 39.0 °F 30.3 °F 34.0 °F 82% 29.68 in 10.0 mi West 16.1 mph 29.9 mph N/A   Overcast
11:55 PM 37.9 °F 29.6 °F 33.1 °F 83% 29.74 in 10.0 mi West 13.8 mph 24.2 mph N/A   Overcast